Estación de San Esteban
Ultimos registro cada 15 minutos 39
| N° | Estación | Fecha / Hora | Temperatura | Humedad | Lluvia | Velocidad | Dirección | Radiación | Presion |
| 39 | San Esteban | 04-09-2026 09:30 | 12,4 | 76 | 0 | 0,9 | 249 | 480 | 1014,9 |
| 38 | San Esteban | 04-09-2026 09:15 | 12,2 | 77 | 0 | 0,4 | 276 | 436 | 1014,8 |
| 37 | San Esteban | 04-09-2026 09:00 | 11,8 | 77 | 0 | 0 | 248 | 388 | 1014,8 |
| 36 | San Esteban | 04-09-2026 08:45 | 11,6 | 78 | 0 | 0,4 | 248 | 338 | 1015 |
| 35 | San Esteban | 04-09-2026 08:30 | 11,3 | 77 | 0 | 0 | 22 | 279 | 1014,7 |
| 34 | San Esteban | 04-09-2026 08:15 | 10,1 | 82 | 0 | 0,9 | 19 | 229 | 1014,8 |
| 33 | San Esteban | 04-09-2026 08:00 | 8,7 | 85 | 0 | 0,4 | 18 | 163 | 1014,9 |
| 32 | San Esteban | 04-09-2026 07:45 | 8,1 | 85 | 0 | 0,9 | 23 | 32 | 1014,7 |
| 31 | San Esteban | 04-09-2026 07:30 | 7,9 | 84 | 0 | 0,9 | 30 | 14 | 1014,7 |
| 30 | San Esteban | 04-09-2026 07:15 | 8,1 | 84 | 0 | 1,3 | 39 | 11 | 1014,7 |
| 29 | San Esteban | 04-09-2026 07:00 | 8,1 | 84 | 0 | 1,3 | 30 | 5 | 1014,6 |
| 28 | San Esteban | 04-09-2026 06:45 | 8,1 | 84 | 0 | 1,8 | 16 | 0 | 1014,4 |
| 27 | San Esteban | 04-09-2026 06:30 | 8,2 | 83 | 0 | 1,3 | 26 | 0 | 1014,5 |
| 26 | San Esteban | 04-09-2026 06:15 | 8,3 | 84 | 0 | 1,3 | 12 | 0 | 1014,6 |
| 25 | San Esteban | 04-09-2026 06:00 | 8,3 | 85 | 0 | 1,3 | 45 | 0 | 1014,6 |
| 24 | San Esteban | 04-09-2026 05:45 | 8,4 | 85 | 0 | 1,8 | 26 | 0 | 1014,4 |
| 23 | San Esteban | 04-09-2026 05:30 | 8,4 | 85 | 0 | 1,3 | 18 | 0 | 1014,4 |
| 22 | San Esteban | 04-09-2026 05:15 | 8,3 | 85 | 0 | 1,3 | 37 | 0 | 1014,3 |
| 21 | San Esteban | 04-09-2026 05:00 | 8,4 | 84 | 0 | 1,8 | 42 | 0 | 1014,3 |
| 20 | San Esteban | 04-09-2026 04:45 | 8,5 | 84 | 0 | 1,8 | 41 | 0 | 1014,3 |
| 19 | San Esteban | 04-09-2026 04:30 | 9 | 84 | 0 | 1,3 | 22 | 0 | 1014,4 |
| 18 | San Esteban | 04-09-2026 04:15 | 9 | 84 | 0 | 1,3 | 18 | 0 | 1014,3 |
| 17 | San Esteban | 04-09-2026 04:00 | 9,2 | 84 | 0 | 0,4 | 15 | 0 | 1014,5 |
| 16 | San Esteban | 04-09-2026 03:45 | 9,3 | 84 | 0 | 0,4 | 15 | 0 | 1014,5 |
| 15 | San Esteban | 04-09-2026 03:30 | 9,6 | 82 | 0 | 0,9 | 32 | 0 | 1014,6 |
| 14 | San Esteban | 04-09-2026 03:15 | 9,7 | 83 | 0 | 1,3 | 41 | 0 | 1014,7 |
| 13 | San Esteban | 04-09-2026 03:00 | 10,2 | 80 | 0 | 0 | 25 | 0 | 1014,9 |
| 12 | San Esteban | 04-09-2026 02:45 | 10,4 | 80 | 0 | 0,9 | 26 | 0 | 1015,2 |
| 11 | San Esteban | 04-09-2026 02:30 | 10,4 | 81 | 0 | 0,9 | 31 | 0 | 1015,2 |
| 10 | San Esteban | 04-09-2026 02:15 | 10,6 | 80 | 0 | 1,3 | 13 | 0 | 1015,4 |
| 9 | San Esteban | 04-09-2026 02:00 | 10,6 | 82 | 0 | 0 | 7 | 0 | 1015,4 |
| 8 | San Esteban | 04-09-2026 01:45 | 10,7 | 81 | 0 | 0,9 | 28 | 0 | 1015,5 |
| 7 | San Esteban | 04-09-2026 01:30 | 10,7 | 81 | 0 | 0,9 | 28 | 0 | 1015,5 |
| 6 | San Esteban | 04-09-2026 01:15 | 10,8 | 80 | 0 | 0,9 | 34 | 0 | 1015,8 |
| 5 | San Esteban | 04-09-2026 01:00 | 10,8 | 81 | 0 | 0,9 | 41 | 0 | 1015,8 |
| 4 | San Esteban | 04-09-2026 00:45 | 10,8 | 80 | 0 | 0,9 | 39 | 0 | 1016,1 |
| 3 | San Esteban | 04-09-2026 00:30 | 11,2 | 79 | 0 | 1,3 | 47 | 0 | 1015,9 |
| 2 | San Esteban | 04-09-2026 00:15 | 11,8 | 75 | 0 | 0,9 | 39 | 0 | 1016,1 |
| 1 | San Esteban | 04-09-2026 00:00 | 12 | 74 | 0 | 0 | 59 | 0 | 1016,1 |